Change the Weather History Date:

Friday, August 29, 2014

  Actual Average Record
Temperature  
Mean Temperature 65 °F -  
Max Temperature 77 °F 82 °F 98 °F (1953)
Min Temperature 55 °F 60 °F 38 °F (1982)
Growing Degree Days 15 (Base 50)    
Moisture  
Dew Point 52 °F    
Average Humidity 62    
Maximum Humidity 87    
Minimum Humidity 43    
Precipitation  
Precipitation 0.00 in - - ()
Sea Level Pressure  
Sea Level Pressure 30.16 in    
Wind  
Wind Speed 5 mph (NE)    
Max Wind Speed 10 mph    
Max Gust Speed -    
Visibility 10 miles    
Events      
Averages and records for this station are not official NWS values.
T = Trace of Precipitation, MM = Missing Value Source: NWS Daily Summary

Daily Weather History Graph

Daily Weather History Graph

Search for Another Location

Airport or City:

Trip Planner

Search our weather history database for the weather conditions in past years. The results will help you decide how hot, cold, wet, or windy it might be!

Date:

Astronomy

Aug. 29, 2014 Rise Set
Actual Time 6:13 AM EDT 7:28 PM EDT
Civil Twilight 5:44 AM EDT 7:57 PM EDT
Nautical Twilight 5:10 AM EDT 8:31 PM EDT
Astronomical Twilight 4:33 AM EDT 9:08 PM EDT
Moon 10:03 AM EDT (8/29) 9:20 PM EDT (8/29)
Length of Visible Light 14h 13m
Length of Day
13h 15m
Waxing Crescent, 15% of the Moon is Illuminated
Aug 29
Waxing Crescent
Sep 2
First Quarter
Sep 8
Full
Sep 15
Last Quarter
Sep 24
New

Hourly Weather History & Observations

Time (EDT) Temp. Dew Point Humidity Pressure Visibility Wind Dir Wind Speed Gust Speed Precip Events Conditions
12:53 AM 64.0 °F 52.0 °F 65% 30.05 in 10.0 mi North 5.8 mph - N/A   Clear
1:53 AM 63.0 °F 52.0 °F 67% 30.06 in 10.0 mi NNW 4.6 mph - N/A   Clear
2:53 AM 60.1 °F 50.0 °F 69% 30.06 in 10.0 mi Calm Calm - N/A   Clear
3:53 AM 57.9 °F 51.1 °F 78% 30.08 in 10.0 mi NNE 5.8 mph - N/A   Clear
4:53 AM 59.0 °F 51.1 °F 75% 30.09 in 10.0 mi North 5.8 mph - N/A   Clear
5:53 AM 57.9 °F 50.0 °F 75% 30.11 in 10.0 mi North 4.6 mph - N/A   Clear
6:53 AM 55.9 °F 52.0 °F 87% 30.14 in 10.0 mi Calm Calm - N/A   Clear
7:53 AM 61.0 °F 52.0 °F 72% 30.16 in 10.0 mi ENE 3.5 mph - N/A   Clear
8:53 AM 64.0 °F 52.0 °F 65% 30.17 in 10.0 mi NNE 3.5 mph - N/A   Clear
9:53 AM 66.9 °F 52.0 °F 59% 30.19 in 10.0 mi North 10.4 mph - N/A   Clear
10:53 AM 70.0 °F 53.1 °F 55% 30.19 in 10.0 mi Variable 4.6 mph - N/A   Clear
11:53 AM 71.1 °F 52.0 °F 51% 30.18 in 10.0 mi Variable 3.5 mph - N/A   Clear
12:53 PM 73.9 °F 50.0 °F 43% 30.18 in 10.0 mi WSW 5.8 mph - N/A   Scattered Clouds
1:53 PM 75.0 °F 51.1 °F 43% 30.17 in 10.0 mi NNE 4.6 mph - N/A   Mostly Cloudy
2:53 PM 75.0 °F 51.1 °F 43% 30.17 in 10.0 mi Variable 3.5 mph - N/A   Mostly Cloudy
4:53 PM 75.9 °F 52.0 °F 43% 30.17 in 10.0 mi Variable 3.5 mph - N/A   Clear
5:53 PM 75.9 °F 52.0 °F 43% 30.17 in 10.0 mi SSE 5.8 mph - N/A   Clear
6:53 PM 72.0 °F 55.0 °F 55% 30.19 in 10.0 mi South 6.9 mph - N/A   Clear
7:53 PM 69.1 °F 54.0 °F 58% 30.21 in 10.0 mi SSE 5.8 mph - N/A   Clear
8:53 PM 66.0 °F 54.0 °F 65% 30.23 in 10.0 mi SSE 6.9 mph - N/A   Clear
9:53 PM 64.9 °F 54.0 °F 68% 30.25 in 10.0 mi South 5.8 mph - N/A   Clear
11:53 PM 62.1 °F 55.0 °F 78% 30.26 in 10.0 mi South 4.6 mph - N/A   Clear